EHI
0 0 0 0 0 0 0 0 0 0 0 0 0 0 0 0 0 0 0 0 0 0 0 0 0 0 0 0 0 0 0 0 0 0 0 0 0 0 0 0 0 0 0
0 0 0 0 0 0 0 0 0 0 0 0 0 0 0 0 0 0 0 0 0 0 0 0 0 0 0 0 0 0 0 0 0 0 0 0 0 0 0 0 0 0 0
0 0 0 0 0 0 0 0 0 0 0 0 0 0 0 0 0 0 0 0 0 0 0 0 0 0 0 0 0 0 0 0 0 0 0 0 0 0 0 0 0 0 0
0 0 0 0 0 0 0 0 0 0 0 0 0 0 0 0 0 0 0 0 0 0 0 0 0 0 0 0 0 0 0 0 0 0 0 0 0 0 0 0 0 0 0
0 0 0 0 0 0 0 0 0 0 0 0 0 0 0 0 0 0 0 0 0 0 0 0 0 0 0 0 0 0 0 0 0 0 0 0 0 0 0 0 0 0 0
0 0 0 0 0 0 0 0 0 0 0 0 0 0 0 0 0 0 0 0 0 0 0 0 0 0 0 0 0 0 0 0 0 0 0 0 0 0 0 0 0 0 0
0 0 0 0 0 0 0 0 0 0 0 0 0 0 0 0 0 0 0 0 0 0 0 0 0 0 0 0 0 0 0 0 0 0 0 0 0 0 0 0 0 0 0
0 0 0 0 0 0 0 0 0 0 0 0 0 0 0 0 0 0 0 0 0 0 0 0 0 0 0 0 0 0 0 0 0 0 0 0 0 0 0 0 0 0 0
0 0 0 0 0 0 0 0 0 0 0 0 0 0 0 0 0 0 0 0 0 0 0 0 0 0 0 0 0 0 0 0 0 0 0 0 0 0 0 0 0 0 0
0 0 0 0 0 0 0 0 0 0 0 0 0 0 0 0 0 0 0 0 0 0 0 0 0 0 0 0 0 0 0 0 0 0 0 0 0 0 0 0 0 0 0
0 0 0 0 0 0 0 0 0 0 0 0 0 0 0 0 0 0 0 0 0 0 0 0 0 0 0 0 0 0 0 0 0 0 0 0 0 0 0 0 0 0 0
0 0 0 0 0 0 0 0 0 0 0 0 0 0 0 0 0 0 0 0 0 0 0 0 0 0 0 0 0 0 0 0 0 0 0 0 0 0 0 0 0 0 0
0 0 0 0 0 0 0 0 0 0 0 0 0 0 0 0 0 0 0 0 0 0 0 0 0 0 0 0 0 0 0 0 0 0 0 0 0 0 0 0 0 0 0
0 0 0 0 0 0 0 0 0 0 0 0 0 0 0 0 0 0 0 0 0 0 0 0 0 0 0 0 0 0 0 0 0 0 0 0 0 0 0 0 0 0 0
0 0 0 0 0 0 0 0 0 0 0 0 0 0 0 0 0 0 0 0 0 0 0 0 0 0 0 0 0 0 0 0 0 0 0 0 0 0 0 0 0 0 0
0 0 0 0 0 0 0 0 0 0 0 0 0 0 0 0 0 0 0 0 0 0 0 0 0 0 0 0 0 0 0 0 0 0 0 0 0 0 0 0 0 0 0
0 0 0 0 0 0 0 0 0 0 0 0 0 0 0 0 0 0 0 0 0 0 0 0 0 0 0 0 0 0 0 0 0 0 0 0 0 0 0 0 0 0 0
0 0 0 0 0 0 0 0 0 0 0 0 0 0 0 0 0 0 0 0 0 0 0 0 0 0 0 0 0 0 0 0 0 0 0 0 0 0 0 0 0 0 0
0 0 0 0 0 0 0 0 0 0 0 0 0 0 0 0 0 0 0 0 0 0 0 0 0 0 0 0 0 0 0 0 0 0 0 0 0 0 0 0 0 0 0
0 0 0 0 0 0 0 0 0 0 0 0 0 0 0 0 0 0 0 0 0 0 0 0 0 0 0 0 0 0 0 0 0 0 0 0 0 0 0 0 0 0 0
0 0 0 0 0 0 0 0 0 0 0 0 0 0 0 0 0 0 0 0 0 0 0 0 0 0 0 0 0 0 0 0 0 0 0 0 0 0 0 0 0 0 0
0 0 0 0 0 0 0 0 0 0 0 0 0 0 0 0 0 0 0 0 0 0 0 0 0 0 0 0 0 0 0 0 0 0 0 0 0 0 0 0 0 0 0
0 0 0 0 0 0 0 0 0 0 0 0 0 0 0 0 0 0 0 0 0 0 0 0 0 0 0 0 0 0 0 0 0 0 0 0 0 0 0 0 0 0 0
0 0 0 0 0 0 0 0 0 0 0 0 0 0 0 0 0 0 0 0 0 0 0 0 0 0 0 0 0 0 0 0 0 0 0 0 0 0 0 0 0 0 0
0 0 0 0 0 0 0 0 0 0 0 0 0 0 0 0 0 0 0 0 0 0 0 0 0 0 0 0 0 0 0 0 0 0 0 0 0 0 0 0 0 0 0
0 0 0 0 0 0 0 0 0 0 0 0 0 0 0 0 0 0 0 0 0 0 0 0 0 0 0 0 0 0 0 0 0 0 0 0 0 0 0 0 0 0 0
Wind_Speed
6 5 6 6 6 6 6 7 7 7 7 8 8 8 9 9 9 9 11 12 13 14 13 14 17 14 13 12 11 12 13 13 19 14 6 7 11 11 11 10 11 13 13
6 6 6 7 7 7 7 8 7 8 8 8 8 9 10 10 10 10 12 12 13 14 14 14 16 13 16 13 12 15 14 14 16 21 8 7 12 11 11 10 10 11 10
6 6 7 8 7 8 8 8 8 9 9 9 9 10 11 11 11 11 12 13 13 14 13 14 15 14 16 13 14 15 13 13 14 17 14 7 8 8 9 9 10 9 10
7 7 8 8 8 9 9 9 9 9 10 10 10 11 11 11 11 12 12 13 13 13 13 14 14 14 16 15 14 15 13 14 13 15 14 8 8 6 8 9 10 9 10
7 8 9 9 9 9 9 10 10 10 11 11 11 12 12 10 10 12 12 13 13 14 14 14 15 18 22 18 14 12 13 13 13 13 14 11 10 8 9 8 11 8 9
8 9 10 9 10 10 10 11 11 11 11 11 11 13 13 11 20 26 21 13 12 13 13 13 13 17 21 27 28 26 22 17 16 15 14 14 13 12 10 10 10 9 9
9 10 10 10 11 11 12 12 12 12 12 12 11 12 14 16 26 27 28 19 13 11 11 11 10 11 18 13 19 26 25 28 27 18 18 17 14 13 13 13 12 11 11
10 10 10 10 12 12 12 12 13 11 12 12 13 13 14 17 26 28 28 18 12 11 11 11 12 12 12 14 12 13 14 15 17 15 14 14 13 11 13 15 14 12 8
10 11 11 11 12 13 13 14 13 13 13 12 13 13 15 17 25 28 27 11 10 11 11 11 12 12 19 23 15 13 14 13 19 26 25 21 23 24 18 11 12 11 10
11 12 11 11 12 14 15 15 13 12 14 14 14 13 15 16 23 27 26 10 10 10 9 10 17 18 20 22 14 12 14 12 10 11 14 17 16 17 24 17 13 12 7
12 12 12 11 12 14 14 13 13 14 14 14 15 14 13 16 21 25 25 12 9 11 10 8 8 19 21 22 19 12 15 14 10 10 9 8 7 8 10 10 11 11 10
12 12 13 12 11 12 13 14 13 13 15 14 14 14 10 12 16 19 24 23 20 12 10 8 10 19 21 21 17 16 20 17 7 7 8 8 8 8 8 9 10 11 10
13 13 13 13 11 11 12 14 13 11 11 12 12 13 12 9 11 22 24 24 24 15 10 17 20 22 20 14 16 19 15 7 5 7 7 7 7 7 6 6 7 8 9
14 14 12 13 13 11 9 10 11 11 11 12 13 13 12 11 10 9 9 12 16 15 12 15 21 20 16 14 13 10 5 5 6 6 6 5 5 6 7 7 6 6 6
13 13 12 11 12 12 11 10 12 11 14 16 13 12 14 14 15 24 19 12 10 11 12 8 7 6 6 5 5 6 5 5 6 5 5 5 6 7 7 6 6 6 6
12 12 10 11 11 11 12 13 17 19 25 26 25 23 16 21 27 27 26 25 25 24 15 8 7 6 6 6 6 5 5 5 5 5 5 5 6 7 6 6 5 6 7
12 13 11 11 11 12 12 13 14 16 20 23 24 25 24 26 26 25 25 24 22 20 9 7 7 6 6 5 5 5 5 5 4 5 5 5 5 5 5 6 6 6 6
11 14 14 11 11 12 12 12 12 14 15 12 15 21 24 25 25 23 22 18 11 9 5 6 6 6 5 5 5 4 4 4 4 4 4 4 5 5 5 6 6 6 6
11 10 10 10 11 11 11 12 12 13 13 13 11 13 19 20 20 19 17 8 8 7 6 6 6 5 5 5 4 4 4 4 3 3 4 4 4 4 5 5 6 9 7
9 18 18 12 11 11 11 11 11 11 12 11 11 11 11 12 9 9 8 7 7 7 7 6 5 5 5 4 4 3 3 3 3 3 3 3 3 4 5 6 5 5 5
9 12 19 14 10 11 11 11 11 11 11 11 10 13 19 11 9 9 8 7 7 7 6 6 5 5 4 4 3 3 3 2 2 2 2 3 3 3 3 4 5 5 4
9 10 10 11 10 10 11 10 10 11 11 12 10 11 18 10 8 8 7 7 6 6 5 5 5 4 4 3 3 3 2 2 2 2 2 3 3 3 3 4 4 4 5
9 10 11 10 10 14 13 10 10 10 10 11 10 10 9 8 8 7 7 7 6 6 5 5 4 4 3 3 2 2 2 3 3 3 3 3 3 3 4 4 5 5 6
9 10 11 11 10 10 11 10 10 10 10 10 9 9 8 8 8 8 7 6 6 5 5 4 4 5 5 4 3 2 2 3 2 3 4 4 4 4 4 5 6 7 7
8 9 10 10 10 10 11 11 10 10 10 10 9 9 8 8 7 7 6 6 6 6 6 5 4 4 5 5 5 4 6 7 5 4 4 4 5 5 5 6 6 6 7
8 9 10 9 9 10 10 10 10 10 10 10 9 8 8 8 7 6 6 5 5 5 5 5 5 6 6 5 6 8 9 9 8 8 4 4 5 5 6 6 8 8 8
Wind_Direction
320 315 313 308 304 301 291 286 285 284 284 280 278 275 272 267 261 256 254 252 251 251 246 243 243 238 238 234 230 230 230 229 250 257 203 199 204 216 226 225 222 229 236
309 308 305 301 302 300 294 290 288 286 284 279 279 277 274 271 265 259 261 258 253 254 250 246 247 242 239 236 232 232 232 228 239 256 239 205 213 213 218 223 225 225 224
308 306 304 301 299 295 293 292 291 287 286 283 279 277 276 273 270 265 262 262 257 256 253 249 249 244 245 240 235 235 233 232 233 247 251 217 218 213 217 226 228 227 222
306 304 300 297 294 291 290 290 289 286 286 285 280 277 276 274 272 270 267 265 263 259 255 251 250 245 245 243 240 238 234 233 233 240 248 233 221 198 207 219 229 225 230
305 302 296 294 292 291 291 290 287 284 282 281 281 281 278 275 273 272 267 263 261 262 258 253 250 249 248 249 244 238 231 233 233 237 243 238 225 204 212 209 226 224 226
303 298 295 296 296 294 292 292 290 288 285 282 279 281 282 280 287 291 289 276 264 261 262 258 254 259 261 261 258 252 236 229 230 232 237 236 230 219 212 211 218 220 229
299 296 297 297 296 294 294 295 293 292 288 286 283 282 282 284 291 294 293 289 278 270 266 265 264 260 265 255 259 261 257 249 236 227 234 234 229 216 210 213 213 212 221
298 296 296 296 296 297 296 295 294 291 290 289 289 287 286 288 295 298 297 292 282 275 269 265 266 265 259 260 252 250 249 252 252 244 236 234 228 217 208 212 214 220 224
299 298 298 298 299 300 299 297 296 295 294 291 289 289 290 292 296 298 297 287 280 276 270 265 266 265 268 271 264 255 252 249 255 252 247 241 233 227 214 209 209 213 222
299 299 299 298 297 298 298 298 297 295 295 295 293 290 289 290 294 299 299 288 283 280 273 265 270 272 272 272 264 257 257 251 241 248 251 252 243 236 228 212 205 211 209
298 299 299 296 294 295 295 296 297 297 296 295 294 294 289 288 295 297 298 292 280 280 279 274 266 277 279 279 274 261 260 259 241 236 236 236 228 223 226 219 207 208 208
300 300 300 298 296 300 298 299 298 298 299 299 298 298 290 287 291 294 296 296 296 290 285 280 274 280 280 279 277 271 271 269 251 237 233 228 222 220 217 214 211 211 212
304 302 302 301 297 294 296 299 301 299 298 299 298 298 297 290 290 297 299 300 299 295 281 283 285 286 286 281 279 280 277 266 251 243 234 227 217 211 201 203 206 209 214
303 304 304 304 303 299 293 294 298 299 298 297 297 297 298 297 294 292 287 291 292 291 287 284 286 285 283 279 277 279 266 247 246 244 236 221 203 198 201 198 200 197 205
300 301 303 301 301 302 299 295 297 291 292 298 299 299 301 301 300 304 305 301 296 289 293 282 273 270 263 261 260 257 250 249 252 239 231 218 203 201 202 196 196 194 201
302 304 303 303 302 302 303 302 298 298 301 302 302 301 300 301 307 310 311 311 310 308 304 292 287 277 272 267 264 258 246 242 236 232 227 215 205 203 199 192 191 196 204
293 300 302 302 303 303 303 305 307 307 304 304 305 308 308 310 313 314 314 314 313 315 308 297 291 287 279 272 263 256 251 242 232 228 223 214 207 202 194 192 192 198 208
292 297 301 299 298 298 300 302 303 305 309 308 310 311 313 314 315 316 319 321 314 314 297 294 293 290 285 280 272 263 256 245 234 228 220 208 201 199 196 195 195 199 205
296 297 297 296 296 297 299 300 301 301 303 305 308 311 315 316 316 317 322 313 307 307 304 298 293 290 287 281 277 270 258 247 236 226 217 206 198 197 201 199 199 210 207
294 300 306 303 301 300 301 301 302 302 304 306 308 310 313 314 314 317 317 310 308 305 304 302 299 292 288 284 281 275 265 251 233 221 210 201 196 196 201 200 200 205 210
295 298 303 304 299 300 300 300 301 302 305 307 305 306 315 317 314 313 313 314 313 311 308 305 302 300 295 289 283 274 262 252 232 214 208 204 199 201 203 201 204 207 210
292 294 297 299 301 302 301 301 303 303 304 304 305 309 316 315 309 311 313 313 312 310 309 306 305 305 303 295 286 274 261 252 237 219 213 207 203 204 200 202 205 209 213
291 296 300 300 300 303 306 301 301 302 303 303 305 309 311 311 312 313 313 313 312 311 312 311 311 311 310 304 295 276 264 257 241 217 209 209 210 211 210 214 215 219 224
293 298 302 303 303 302 301 302 302 303 304 304 305 306 309 309 308 309 309 309 311 310 311 313 312 313 315 311 303 293 275 263 241 221 214 216 221 223 223 226 228 231 233
297 301 303 302 302 302 302 302 303 305 305 306 306 307 308 308 308 307 308 309 310 309 312 312 308 309 310 308 302 291 286 279 266 243 217 220 227 230 232 235 237 240 241
300 302 301 300 299 299 300 301 303 304 304 303 303 304 304 304 304 304 306 306 308 306 306 306 305 306 304 299 294 297 297 290 280 269 244 226 231 238 237 243 244 244 247